Home > Weather > Bludenz > Past weeks

Flag for Austria Weather for the Past 2 Weeks in Bludenz, Vorarlberg, Austria

Now
40 °F

Quite cool.


Feels Like: 40 °F
Forecast: 24 / 43 °F
Wind: 2 mph from Southwest

Location: Feldkirch

Current Time: Feb 10, 2016 at 5:03:54 PM

Latest Report: Feb 10, 2016 at 4:00 PM


Visibility: N/A

Pressure: 29.63 "Hg (27.65 "Hg at 563m altitude)

Humidity: 47%

Dew point: 22 °F

Location of BludenzLocation

Historic Weather in Bludenz — Graph

°F

Bludenz Temperature Yesterday

Maximum temperature yesterday: 60 °F (at 2:00 PM)
Minimum temperature yesterday: 43 °F (at 8:00 AM)
Average temperature yesterday: 54 °F

High & Low Weather Summary for the Past Weeks

 TemperatureHumidityPressure
High61 °F (Feb 1, 3:00 PM)98% (Jan 30, 12:00 AM)30.52 "Hg (Jan 30, 12:00 AM)
Low31 °F (Jan 30, 8:00 AM)29% (Feb 9, 2:00 PM)29.26 "Hg (Feb 9, 7:00 PM)
Average44 °F74%30.13 "Hg
* Reported Jan 26 3:00 PM — Feb 10 3:00 PM, Bludenz, Weather by CustomWeather, © 2016

Note: Actual official high and low records may vary slightly from our data, if they occured in-between our weather recording intervals... More about our weather records

Advertising

Bludenz Weather History for the Previous 24 Hours

 ConditionsComfort  
Time TempWeatherWind HumidityBarometerVisibility
3:00 PM
Wed, Feb 10
40 °FChilly.3 mph52%29.62 "HgN/A
2:00 PM40 °FChilly.3 mph57%29.62 "HgN/A
1:00 PM41 °FQuite cool.3 mph50%29.62 "HgN/A
12:00 PM38 °FChilly.3 mph65%29.64 "HgN/A
11:00 AM37 °FChilly.2 mph70%29.62 "HgN/A
10:00 AM38 °FSnow flurries. Overcast.3 mph73%29.60 "Hg3 mi
9:00 AM38 °FChilly.1 mph66%29.57 "HgN/A
8:00 AM38 °FFog.3 mph64%29.55 "HgN/A
7:00 AM38 °FOvercast.2 mph61%29.50 "Hg3 mi
6:00 AM38 °FChilly.3 mph59%29.47 "HgN/A
5:00 AM40 °FQuite cool.3 mph49%29.47 "HgN/A
9:00 PM
Tue, Feb 9
48 °FCool.3 mph59%29.35 "HgN/A
8:00 PM54 °FCool.3 mph45%29.26 "HgN/A
7:00 PM55 °FRefreshingly cool.3 mph40%29.26 "HgN/A
6:00 PM57 °FRefreshingly cool.3 mph36%29.29 "HgN/A
5:00 PM59 °FRefreshingly cool.5 mph29%29.29 "HgN/A
Weather by CustomWeather, © 2016

See weather overviewHow to use our weather pages